Regional Weather Roundup
Issued by NWS

Home | Current Version | Previous Version | Graphics & Text | Print | Product List | Glossary On
Versions: 1 2 3 4 5 6 7 8 9 10 11 12 13 14 15 16 17 18 19 20 21 22 23 24 25 26 27 28 29 30 31 32 33 34 35 36 37 38 39 40 41 42 43 44 45 46 47 48 49 50
000
ASUS43 KLSX 260607
RWRMO

WEATHER SUMMARY FOR MISSOURI
NATIONAL WEATHER SERVICE SPRINGFIELD MO
100 AM CDT FRI MAY 26 2017

NOTE: "FAIR" INDICATES FEW OR NO CLOUDS BELOW 12,000 FEET WITH NO
       SIGNIFICANT WEATHER AND/OR OBSTRUCTIONS TO VISIBILITY.
       CURRENT SKY AND/OR WEATHER CONDITIONS ARE NOT AVAILABLE FOR
       CHILLICOTHE AND FARMINGTON.

MOZ001>031-035>038-043-044-053-054-260700-
...NORTHERN AND WESTERN MISSOURI...

CITY           SKY/WX    TMP DP  RH WIND       PRES   REMARKS
KANSAS CTY INT CLOUDY    66  57  72 SE10      29.68F
6HR MIN TEMP:  65; 6HR MAX TEMP:  73;

KANSAS C DTWN  CLOUDY    69  57  65 E6        29.68S
6HR MIN TEMP:  66; 6HR MAX TEMP:  76;

LEE`S SUMMIT   MOCLDY    65  57  75 SE7       29.70R
6HR MIN TEMP:  63; 6HR MAX TEMP:  74;

ST JOSEPH      MOCLDY    65  57  75 SE7       29.68S
6HR MIN TEMP:  64; 6HR MAX TEMP:  75;

CHILLICOTHE      N/A     65  55  70 SE3       29.72R
6HR MIN TEMP:  65; 6HR MAX TEMP:  73; 6HR PCP:  0.01;

KIRKSVILLE     CLOUDY    61  53  75 SE7       29.75F
6HR MIN TEMP:  60; 6HR MAX TEMP:  71;


$$
MOZ066>068-077>081-088>096-101>105-260700-
...SOUTHWEST MISSOURI...

CITY           SKY/WX    TMP DP  RH WIND       PRES   REMARKS
SPRINGFIELD    CLOUDY    67  57  70 SE13      29.71S
6HR MIN TEMP:  67; 6HR MAX TEMP:  75;

JOPLIN         PTCLDY    71  59  65 SE12      29.65F
6HR MIN TEMP:  70; 6HR MAX TEMP:  80;

BRANSON        PTCLDY    64  57  77 SE7       29.74S

$$
MOZ032>034-039>042-045>050-055>058-069>072-260700-
...CENTRAL MISSOURI...

CITY           SKY/WX    TMP DP  RH WIND       PRES   REMARKS
COLUMBIA       CLOUDY    63  54  72 SE9       29.75S
6HR MIN TEMP:  63; 6HR MAX TEMP:  72; 6HR PCP: TRACE;

JEFFERSON CITY CLOUDY    67  54  63 E8        29.74S
6HR MIN TEMP:  64; 6HR MAX TEMP:  76;

ROLLA          CLEAR     61  54  77 SE8       29.77R
6HR MIN TEMP:  61; 6HR MAX TEMP:  70;

SEDALIA        CLOUDY    64  58  80 SE7       29.73S
6HR MIN TEMP:  64; 6HR MAX TEMP:  74;

WHITEMAN AFB   CLOUDY    62  62 100 SE5       29.71R
WARRENSBURG    CLOUDY    63  54  72 SE5       29.71R
OSAGE BEACH    PTCLDY    63  55  75 SE5       29.75S

$$
MOZ051-052-059>065-260700-
...EAST CENTRAL MISSOURI...

CITY           SKY/WX    TMP DP  RH WIND       PRES   REMARKS
ST LOUIS INTL  MOCLDY    67  52  58 SE8       29.78F
6HR MIN TEMP:  64; 6HR MAX TEMP:  77; 6HR PCP: TRACE;

SPIRIT OF STL  PTCLDY    62  54  74 S6        29.77F
6HR MIN TEMP:  58; 6HR MAX TEMP:  74;

ST CHARLES     CLOUDY    62  56  80 SE7       29.76F
6HR MIN TEMP:  59; 6HR MAX TEMP:  76;


$$
MOZ072>076-082>087-097>100-106>115-260700-
...SOUTH CENTRAL AND SOUTHEAST MISSOURI...

CITY           SKY/WX    TMP DP  RH WIND       PRES   REMARKS
CAPE GIRARDEAU CLEAR     60  52  74 CALM      29.82R
6HR MIN TEMP:  58; 6HR MAX TEMP:  74;

FARMINGTON     PTCLDY    59  53  80 SE5       29.82S
6HR MIN TEMP:  58; 6HR MAX TEMP:  73;

POPLAR BLUFF   CLEAR     65  57  75 S3        29.81R
6HR MIN TEMP:  64; 6HR MAX TEMP:  73;

WEST PLAINS    PTCLDY    64  56  75 S8        29.80S
6HR MIN TEMP:  64; 6HR MAX TEMP:  74;


$$



USA.gov is the U.S. government's official web portal to all federal, state and local government web resources and services.